Location: Neuvy Saint Sepulchre
(46.5953°N, 1.8122°E)
Time: 10:59:35
(UTC+02:00)

ISS - Pass Details

Date: 10 May 2021
Orbit: 417 x 422 km, 51.6° (Epoch: 15 May)

Event Time Altitude Azimuth Distance (km) Brightness Sun altitude
Exits shadow 04:23:19 - 294° (WNW) 1,694 -0.8 -17.0°
Reaches altitude 10° 04:23:49 10° 297° (WNW) 1,505 -1.1 -16.9°
Maximum altitude 04:26:56 34° 5° (N) 720 -2.1 -16.6°
Drops below altitude 10° 04:30:03 10° 72° (ENE) 1,506 -0.1 -16.2°
Sets 04:32:17 0° 82° (E) 2,370 0.9 -16.0°
